| time (UTC) | temp F | wind direction | speed knots | gust knots | rain 1hr in | rain 24hr in | rain mn in | humidity % | barometer mb |
| 20260902060648 | 64 | 229 | 3.5 | 3.5 | 0.00 | 0.04 | 0.01 | 86 | 1014.1 |
| 20260902055848 | 64 | 263 | 1.7 | 4.3 | 0.00 | 0.04 | 0.01 | 88 | 1014.1 |
| 20260902055048 | 62 | 248 | 1.7 | 3.5 | 0.00 | 0.04 | 0.01 | 99 | 1014.0 |
| 20260902054248 | 59 | 266 | 1.7 | 3.5 | 0.00 | 0.04 | 0.01 | 99 | 1014.0 |
| 20260902053448 | 58 | 220 | 1.7 | 1.7 | 0.00 | 0.04 | 0.01 | 99 | 1014.0 |
| 20260902052648 | 56 | 226 | 0.9 | 1.7 | 0.00 | 0.04 | 0.01 | 99 | 1014.1 |
| 20260902051848 | 55 | 238 | 0.0 | 1.7 | 0.01 | 0.04 | 0.01 | 99 | 1014.0 |
| 20260902051048 | 54 | 240 | 0.9 | 1.7 | 0.01 | 0.04 | 0.01 | 99 | 1013.9 |
| 20260902050248 | 54 | 237 | 1.7 | 3.5 | 0.01 | 0.04 | 0.01 | 99 | 1013.7 |
| 20260902045448 | 53 | 240 | 0.0 | 1.7 | 0.01 | 0.04 | 0.01 | 99 | 1013.6 |
| 20260902044648 | 53 | 241 | 0.0 | 0.9 | 0.01 | 0.04 | 0.01 | 99 | 1013.6 |
| 20260902043847 | 52 | 0 | 0.0 | 0.0 | 0.01 | 0.05 | 0.01 | 99 | 1013.5 |
| 20260902043047 | 53 | 242 | 0.0 | 0.9 | 0.01 | 0.08 | 0.01 | 99 | 1013.4 |
| 20260902042247 | 53 | 227 | 0.0 | 1.7 | 0.01 | 0.08 | 0.01 | 99 | 1013.3 |
| 20260902041447 | 53 | 242 | 0.0 | 3.5 | 0.00 | 0.07 | 0.00 | 99 | 1013.4 |
| 20260902040647 | 53 | 232 | 1.7 | 3.5 | 0.00 | 0.07 | 0.00 | 99 | 1013.5 |
| 20260902035847 | 53 | 246 | 1.7 | 3.5 | 0.00 | 0.07 | 0.00 | 99 | 1013.4 |
| 20260902035047 | 53 | 227 | 0.9 | 1.7 | 0.00 | 0.07 | 0.00 | 99 | 1013.5 |
| 20260902034247 | 53 | 251 | 0.0 | 1.7 | 0.00 | 0.07 | 0.00 | 99 | 1013.2 |
| 20260902033447 | 53 | 0 | 0.0 | 0.0 | 0.00 | 0.07 | 0.00 | 99 | 1013.4 |
| 20260902032647 | 53 | 0 | 0.0 | 0.0 | 0.00 | 0.07 | 0.00 | 99 | 1013.3 |
| 20260902031847 | 53 | 0 | 0.0 | 0.0 | 0.00 | 0.07 | 0.00 | 99 | 1013.3 |
| 20260902031047 | 53 | 0 | 0.0 | 0.0 | 0.00 | 0.07 | 0.00 | 99 | 1013.5 |
| 20260902030247 | 53 | 0 | 0.0 | 0.0 | 0.00 | 0.07 | 0.00 | 99 | 1013.3 |
| 20260902025447 | 53 | 0 | 0.0 | 0.0 | 0.00 | 0.07 | 0.00 | 99 | 1013.4 |
| 20260902024647 | 53 | 0 | 0.0 | 0.0 | 0.00 | 0.07 | 0.00 | 99 | 1013.3 |
| 20260902023847 | 53 | 0 | 0.0 | 0.0 | 0.00 | 0.07 | 0.00 | 99 | 1013.3 |
| 20260902023047 | 53 | 225 | 0.0 | 0.9 | 0.00 | 0.07 | 0.00 | 99 | 1013.3 |
| 20260902022247 | 54 | 360 | 0.0 | 0.9 | 0.00 | 0.07 | 0.00 | 99 | 1013.2 |
| 20260902021447 | 54 | 360 | 0.0 | 1.7 | 0.00 | 0.07 | 0.00 | 99 | 1013.1 |
| 20260902020647 | 54 | 0 | 0.0 | 0.0 | 0.00 | 0.07 | 0.00 | 99 | 1013.3 |
| 20260902015847 | 54 | 360 | 0.0 | 0.9 | 0.00 | 0.07 | 0.00 | 99 | 1013.2 |
| 20260902015047 | 55 | 360 | 0.0 | 0.9 | 0.00 | 0.07 | 0.00 | 97 | 1013.3 |
| 20260902014247 | 55 | 360 | 0.0 | 0.9 | 0.00 | 0.07 | 0.00 | 97 | 1013.3 |
| 20260902013447 | 55 | 45 | 0.0 | 0.9 | 0.00 | 0.07 | 0.00 | 97 | 1013.1 |
| 20260902012647 | 55 | 0 | 0.0 | 0.0 | 0.00 | 0.07 | 0.00 | 97 | 1013.1 |
| 20260902011847 | 56 | 0 | 0.0 | 0.0 | 0.00 | 0.07 | 0.00 | 97 | 1013.2 |
| 20260902011047 | 56 | 245 | 0.0 | 1.7 | 0.00 | 0.07 | 0.00 | 97 | 1013.1 |
| 20260902010247 | 57 | 229 | 1.7 | 1.7 | 0.00 | 0.07 | 0.00 | 97 | 1013.1 |
| 20260902005447 | 57 | 0 | 0.0 | 0.0 | 0.00 | 0.07 | 0.00 | 97 | 1013.1 |
| 20260902004647 | 57 | 360 | 0.0 | 1.7 | 0.00 | 0.07 | 0.00 | 97 | 1013.0 |
| 20260902003847 | 57 | 0 | 0.0 | 0.0 | 0.00 | 0.07 | 0.00 | 97 | 1013.0 |
| 20260902003047 | 57 | 0 | 0.0 | 0.0 | 0.00 | 0.07 | 0.00 | 97 | 1012.9 |
| 20260902002247 | 57 | 0 | 0.0 | 0.0 | 0.00 | 0.07 | 0.00 | 97 | 1012.9 |
| 20260902001447 | 58 | 0 | 0.0 | 0.0 | 0.00 | 0.07 | 0.00 | 96 | 1012.8 |
| 20260902000647 | 58 | 0 | 0.0 | 0.0 | 0.00 | 0.07 | 0.00 | 97 | 1013.2 |
| 20260901235847 | 59 | 180 | 0.0 | 1.7 | 0.00 | 0.07 | 0.00 | 97 | 1012.8 |
| 20260901235047 | 59 | 180 | 0.0 | 1.7 | 0.00 | 0.07 | 0.00 | 96 | 1012.8 |
| 20260901234247 | 59 | 0 | 0.0 | 0.0 | 0.00 | 0.07 | 0.00 | 96 | 1012.9 |
| 20260901233447 | 58 | 0 | 0.0 | 0.0 | 0.00 | 0.07 | 0.00 | 96 | 1012.9 |
| 20260901232647 | 59 | 225 | 0.0 | 0.9 | 0.00 | 0.07 | 0.00 | 95 | 1012.6 |
| 20260901231847 | 59 | 0 | 0.0 | 0.0 | 0.00 | 0.07 | 0.00 | 95 | 1012.7 |
| 20260901231047 | 59 | 0 | 0.0 | 0.0 | 0.00 | 0.07 | 0.00 | 94 | 1012.8 |
| 20260901230247 | 58 | 45 | 0.0 | 1.7 | 0.00 | 0.07 | 0.00 | 93 | 1012.9 |
| 20260901225447 | 58 | 81 | 0.0 | 0.9 | 0.00 | 0.07 | 0.00 | 93 | 1012.8 |
| 20260901224647 | 58 | 135 | 0.0 | 0.9 | 0.00 | 0.07 | 0.00 | 92 | 1012.6 |
| 20260901223846 | 58 | 0 | 0.0 | 0.0 | 0.00 | 0.07 | 0.00 | 91 | 1012.9 |
| 20260901223047 | 58 | 0 | 0.0 | 0.0 | 0.00 | 0.07 | 0.00 | 91 | 1012.6 |
| 20260901222246 | 58 | 0 | 0.0 | 0.0 | 0.00 | 0.07 | 0.00 | 90 | 1012.7 |
| 20260901221446 | 58 | 0 | 0.0 | 0.0 | 0.00 | 0.07 | 0.00 | 90 | 1012.7 |
| 20260901220646 | 59 | 0 | 0.0 | 0.0 | 0.00 | 0.07 | 0.00 | 90 | 1012.7 |
| 20260901215846 | 60 | 28 | 0.0 | 1.7 | 0.00 | 0.07 | 0.07 | 89 | 1012.6 |
| 20260901215046 | 60 | 32 | 0.9 | 1.7 | 0.00 | 0.07 | 0.07 | 89 | 1012.4 |
| 20260901214246 | 61 | 0 | 0.0 | 0.0 | 0.00 | 0.07 | 0.07 | 88 | 1012.7 |
| 20260901213446 | 61 | 0 | 0.0 | 0.0 | 0.00 | 0.07 | 0.07 | 87 | 1012.7 |
| 20260901212646 | 61 | 10 | 0.0 | 1.7 | 0.00 | 0.07 | 0.07 | 87 | 1012.5 |
| 20260901211846 | 61 | 37 | 0.9 | 1.7 | 0.00 | 0.07 | 0.07 | 87 | 1012.5 |
| 20260901211046 | 61 | 45 | 0.9 | 1.7 | 0.00 | 0.07 | 0.07 | 85 | 1012.6 |
| 20260901210246 | 61 | 225 | 0.0 | 0.9 | 0.00 | 0.07 | 0.07 | 84 | 1012.5 |
| 20260901205446 | 61 | 225 | 0.0 | 1.7 | 0.00 | 0.07 | 0.07 | 84 | 1012.5 |
| 20260901204646 | 61 | 45 | 0.9 | 1.7 | 0.00 | 0.07 | 0.07 | 83 | 1012.3 |
| 20260901203846 | 61 | 42 | 0.9 | 1.7 | 0.00 | 0.07 | 0.07 | 83 | 1012.4 |
| 20260901203046 | 62 | 0 | 0.0 | 0.0 | 0.00 | 0.07 | 0.07 | 82 | 1012.3 |
| 20260901202247 | 62 | 0 | 0.0 | 0.0 | 0.00 | 0.07 | 0.07 | 81 | 1012.3 |
| 20260901201446 | 62 | 225 | 0.0 | 1.7 | 0.00 | 0.07 | 0.07 | 80 | 1012.3 |
| 20260901200646 | 62 | 225 | 0.9 | 1.7 | 0.00 | 0.07 | 0.07 | 80 | 1012.3 |
| 20260901195846 | 63 | 315 | 0.0 | 0.9 | 0.00 | 0.07 | 0.07 | 77 | 1012.4 |
| 20260901195047 | 64 | 6 | 0.0 | 0.9 | 0.00 | 0.07 | 0.07 | 72 | 1012.3 |
| 20260901194246 | 64 | 31 | 0.0 | 2.6 | 0.00 | 0.07 | 0.07 | 71 | 1012.3 |
| 20260901193446 | 65 | 29 | 1.7 | 3.5 | 0.00 | 0.07 | 0.07 | 71 | 1012.3 |
| 20260901192646 | 65 | 328 | 0.0 | 2.6 | 0.00 | 0.07 | 0.07 | 70 | 1012.2 |
| 20260901191846 | 65 | 276 | 1.7 | 3.5 | 0.00 | 0.07 | 0.07 | 70 | 1012.0 |
| 20260901191046 | 65 | 1 | 1.7 | 3.5 | 0.00 | 0.07 | 0.07 | 70 | 1011.9 |
| 20260901190246 | 65 | 221 | 1.7 | 3.5 | 0.00 | 0.07 | 0.07 | 71 | 1011.8 |
| 20260901185446 | 64 | 251 | 1.7 | 3.5 | 0.00 | 0.07 | 0.07 | 72 | 1011.5 |
| 20260901184646 | 64 | 258 | 2.6 | 3.5 | 0.00 | 0.07 | 0.07 | 72 | 1011.7 |
| 20260901183846 | 63 | 339 | 0.0 | 0.9 | 0.00 | 0.07 | 0.07 | 74 | 1011.5 |
| 20260901183046 | 63 | 348 | 0.0 | 1.7 | 0.00 | 0.07 | 0.07 | 73 | 1011.5 |
| 20260901182246 | 64 | 0 | 0.0 | 0.0 | 0.00 | 0.07 | 0.07 | 70 | 1011.4 |
| 20260901181446 | 65 | 0 | 0.0 | 0.0 | 0.00 | 0.07 | 0.07 | 65 | 1011.3 |
| 20260901180646 | 66 | 0 | 0.0 | 0.0 | 0.00 | 0.07 | 0.07 | 62 | 1011.1 |
| 20260901175846 | 67 | 305 | 0.0 | 1.7 | 0.00 | 0.07 | 0.07 | 61 | 1011.2 |
| 20260901175046 | 68 | 247 | 0.9 | 2.6 | 0.00 | 0.07 | 0.07 | 60 | 1011.1 |
| 20260901174246 | 69 | 258 | 1.7 | 5.2 | 0.00 | 0.07 | 0.07 | 59 | 1011.1 |
| 20260901173446 | 70 | 235 | 2.6 | 7.0 | 0.00 | 0.07 | 0.07 | 58 | 1010.8 |
| 20260901172646 | 70 | 222 | 4.3 | 7.0 | 0.00 | 0.07 | 0.07 | 58 | 1011.0 |
| 20260901171846 | 70 | 238 | 2.6 | 5.2 | 0.00 | 0.07 | 0.07 | 58 | 1011.0 |
| 20260901171046 | 71 | 245 | 3.5 | 6.1 | 0.00 | 0.07 | 0.07 | 58 | 1011.0 |
| 20260901170246 | 71 | 235 | 3.5 | 6.1 | 0.00 | 0.07 | 0.07 | 57 | 1010.8 |
| 20260901165446 | 72 | 237 | 1.7 | 7.0 | 0.00 | 0.07 | 0.07 | 55 | 1010.8 |
| 20260901164645 | 73 | 276 | 3.5 | 8.7 | 0.00 | 0.07 | 0.07 | 51 | 1010.8 |
| 20260901163845 | 74 | 271 | 4.3 | 8.7 | 0.00 | 0.07 | 0.07 | 50 | 1010.6 |
| 20260901163045 | 74 | 248 | 3.5 | 5.2 | 0.00 | 0.07 | 0.07 | 52 | 1010.7 |
| 20260901162245 | 72 | 229 | 3.5 | 7.8 | 0.00 | 0.07 | 0.07 | 56 | 1010.8 |
| 20260901161445 | 73 | 243 | 6.1 | 7.8 | 0.00 | 0.07 | 0.07 | 51 | 1010.7 |
| 20260901160645 | 74 | 295 | 4.3 | 7.0 | 0.00 | 0.07 | 0.07 | 49 | 1010.6 |
| 20260901155845 | 74 | 267 | 5.2 | 7.0 | 0.00 | 0.07 | 0.07 | 50 | 1010.6 |
| 20260901155045 | 75 | 260 | 2.6 | 7.8 | 0.00 | 0.07 | 0.07 | 50 | 1010.5 |
| 20260901154245 | 74 | 247 | 4.3 | 7.8 | 0.00 | 0.07 | 0.07 | 49 | 1010.4 |
| 20260901153445 | 76 | 243 | 4.3 | 9.6 | 0.00 | 0.07 | 0.07 | 48 | 1010.5 |
| 20260901152645 | 76 | 245 | 7.0 | 9.6 | 0.00 | 0.07 | 0.07 | 49 | 1010.4 |
| 20260901151845 | 76 | 270 | 3.5 | 9.6 | 0.00 | 0.07 | 0.07 | 48 | 1010.3 |
| 20260901151045 | 75 | 242 | 7.0 | 9.6 | 0.00 | 0.07 | 0.07 | 47 | 1010.4 |
| 20260901150245 | 78 | 248 | 6.1 | 13.9 | 0.00 | 0.07 | 0.07 | 45 | 1010.5 |
| 20260901145445 | 79 | 245 | 7.8 | 9.6 | 0.00 | 0.07 | 0.07 | 46 | 1010.4 |
| 20260901144645 | 77 | 263 | 3.5 | 7.0 | 0.00 | 0.07 | 0.07 | 50 | 1010.4 |
| 20260901143845 | 75 | 265 | 3.5 | 9.6 | 0.00 | 0.07 | 0.07 | 52 | 1010.5 |
| 20260901143045 | 74 | 255 | 5.2 | 9.6 | 0.00 | 0.07 | 0.07 | 52 | 1010.6 |
| 20260901142245 | 75 | 250 | 2.6 | 9.6 | 0.00 | 0.07 | 0.07 | 53 | 1010.6 |
| 20260901141445 | 74 | 237 | 6.1 | 10.4 | 0.00 | 0.07 | 0.07 | 53 | 1010.6 |
| 20260901140645 | 74 | 206 | 7.8 | 13.9 | 0.00 | 0.07 | 0.07 | 53 | 1010.5 |
| 20260901135845 | 74 | 225 | 6.1 | 13.9 | 0.00 | 0.07 | 0.07 | 54 | 1010.7 |
| 20260901135045 | 74 | 236 | 7.8 | 12.2 | 0.00 | 0.07 | 0.07 | 53 | 1010.7 |
| 20260901134245 | 74 | 241 | 7.8 | 13.9 | 0.00 | 0.07 | 0.07 | 54 | 1010.8 |
| 20260901133445 | 74 | 232 | 7.0 | 13.0 | 0.00 | 0.07 | 0.07 | 54 | 1010.9 |
| 20260901132645 | 74 | 224 | 7.8 | 12.2 | 0.00 | 0.07 | 0.07 | 53 | 1010.8 |
| 20260901131845 | 73 | 226 | 3.5 | 10.4 | 0.00 | 0.07 | 0.07 | 60 | 1011.0 |
| 20260901131045 | 71 | 231 | 7.8 | 10.4 | 0.00 | 0.07 | 0.07 | 63 | 1011.0 |
| 20260901130245 | 71 | 224 | 7.0 | 12.2 | 0.00 | 0.07 | 0.07 | 64 | 1011.0 |
| 20260901125445 | 71 | 235 | 8.7 | 13.0 | 0.00 | 0.07 | 0.07 | 63 | 1010.8 |
| 20260901124645 | 72 | 258 | 7.0 | 13.0 | 0.00 | 0.07 | 0.07 | 62 | 1010.7 |
| 20260901123845 | 73 | 265 | 7.8 | 13.0 | 0.00 | 0.07 | 0.07 | 56 | 1010.8 |
| 20260901123045 | 74 | 245 | 3.5 | 11.3 | 0.00 | 0.07 | 0.07 | 58 | 1010.8 |
| 20260901122245 | 74 | 267 | 5.2 | 9.6 | 0.00 | 0.07 | 0.07 | 60 | 1010.8 |
| 20260901121445 | 73 | 239 | 7.0 | 9.6 | 0.00 | 0.07 | 0.07 | 60 | 1010.7 |
| 20260901120645 | 73 | 262 | 6.1 | 9.6 | 0.01 | 0.07 | 0.07 | 61 | 1010.9 |
| 20260901115845 | 74 | 254 | 5.2 | 9.6 | 0.01 | 0.07 | 0.07 | 62 | 1011.0 |
| 20260901115045 | 72 | 242 | 4.3 | 7.0 | 0.01 | 0.07 | 0.07 | 66 | 1011.2 |
| 20260901114245 | 72 | 244 | 6.1 | 7.0 | 0.01 | 0.07 | 0.07 | 70 | 1011.1 |
| 20260901113445 | 71 | 235 | 4.3 | 7.0 | 0.01 | 0.07 | 0.07 | 73 | 1011.2 |
| 20260901112645 | 68 | 241 | 3.5 | 5.2 | 0.01 | 0.07 | 0.07 | 80 | 1011.2 |
| 20260901111845 | 65 | 243 | 3.5 | 7.0 | 0.01 | 0.07 | 0.07 | 80 | 1011.2 |
| 20260901111045 | 65 | 279 | 3.5 | 14.8 | 0.01 | 0.07 | 0.07 | 75 | 1011.1 |
| 20260901110244 | 68 | 257 | 10.4 | 14.8 | 0.00 | 0.06 | 0.06 | 70 | 1011.3 |
| 20260901105444 | 70 | 254 | 7.8 | 9.6 | 0.00 | 0.06 | 0.06 | 64 | 1011.0 |
| 20260901104644 | 70 | 243 | 5.2 | 13.0 | 0.00 | 0.06 | 0.06 | 66 | 1010.8 |
| 20260901103844 | 70 | 254 | 7.0 | 14.8 | 0.00 | 0.06 | 0.06 | 65 | 1010.8 |
| 20260901103044 | 70 | 250 | 10.4 | 14.8 | 0.00 | 0.06 | 0.06 | 66 | 1010.6 |
| 20260901102244 | 69 | 251 | 2.6 | 7.8 | 0.00 | 0.06 | 0.06 | 71 | 1010.6 |
| 20260901101444 | 67 | 255 | 6.1 | 13.9 | 0.00 | 0.06 | 0.06 | 74 | 1010.8 |
| 20260901100644 | 66 | 264 | 6.1 | 7.8 | 0.00 | 0.06 | 0.06 | 75 | 1010.7 |
| 20260901095844 | 66 | 236 | 4.3 | 7.8 | 0.01 | 0.06 | 0.06 | 75 | 1010.6 |
| 20260901095044 | 66 | 240 | 5.2 | 13.0 | 0.01 | 0.06 | 0.06 | 77 | 1010.7 |
| 20260901094244 | 65 | 253 | 8.7 | 10.4 | 0.01 | 0.06 | 0.06 | 76 | 1010.8 |
| 20260901093444 | 65 | 224 | 3.5 | 9.6 | 0.01 | 0.06 | 0.06 | 77 | 1010.5 |
| 20260901092644 | 65 | 220 | 7.0 | 13.0 | 0.01 | 0.06 | 0.06 | 77 | 1010.6 |
| 20260901091844 | 65 | 249 | 4.3 | 13.0 | 0.01 | 0.06 | 0.06 | 77 | 1010.4 |
| 20260901091044 | 65 | 249 | 7.0 | 12.2 | 0.01 | 0.06 | 0.06 | 76 | 1010.4 |
| 20260901090244 | 66 | 249 | 7.0 | 10.4 | 0.00 | 0.05 | 0.05 | 76 | 1010.4 |
| 20260901085444 | 67 | 271 | 6.1 | 10.4 | 0.00 | 0.05 | 0.05 | 76 | 1010.3 |
| 20260901084644 | 66 | 233 | 3.5 | 11.3 | 0.00 | 0.05 | 0.05 | 79 | 1010.2 |
| 20260901083844 | 65 | 227 | 2.6 | 10.4 | 0.00 | 0.05 | 0.05 | 82 | 1010.1 |
| 20260901083044 | 64 | 232 | 5.2 | 10.4 | 0.00 | 0.05 | 0.05 | 82 | 1010.1 |
| 20260901082244 | 64 | 256 | 3.5 | 8.7 | 0.00 | 0.05 | 0.05 | 84 | 1010.2 |
| 20260901081444 | 63 | 235 | 3.5 | 8.7 | 0.00 | 0.05 | 0.05 | 90 | 1010.1 |
| 20260901080644 | 63 | 199 | 2.6 | 7.0 | 0.00 | 0.05 | 0.05 | 90 | 1010.0 |
| 20260901075844 | 63 | 217 | 2.6 | 7.8 | 0.00 | 0.05 | 0.05 | 90 | 1009.8 |
| 20260901075044 | 62 | 224 | 3.5 | 9.6 | 0.00 | 0.05 | 0.05 | 89 | 1009.8 |
| 20260901074244 | 62 | 251 | 3.5 | 9.6 | 0.00 | 0.05 | 0.05 | 87 | 1009.7 |
| 20260901073444 | 62 | 239 | 1.7 | 7.8 | 0.00 | 0.05 | 0.05 | 85 | 1009.6 |
| 20260901072644 | 64 | 230 | 4.3 | 9.6 | 0.00 | 0.05 | 0.05 | 80 | 1009.5 |
| 20260901071844 | 65 | 239 | 5.2 | 9.6 | 0.00 | 0.05 | 0.05 | 81 | 1009.3 |
| 20260901071044 | 64 | 248 | 3.5 | 7.0 | 0.00 | 0.05 | 0.05 | 85 | 1009.4 |
| 20260901070244 | 62 | 236 | 2.6 | 9.6 | 0.00 | 0.05 | 0.05 | 88 | 1009.1 |
| 20260901065444 | 62 | 237 | 3.5 | 9.6 | 0.00 | 0.05 | 0.05 | 87 | 1009.2 |
| 20260901064644 | 62 | 250 | 7.0 | 9.6 | 0.00 | 0.05 | 0.05 | 85 | 1009.0 |
| 20260901063844 | 63 | 263 | 3.5 | 10.4 | 0.00 | 0.05 | 0.05 | 83 | 1009.1 |
| 20260901063044 | 64 | 236 | 5.2 | 9.6 | 0.00 | 0.05 | 0.05 | 78 | 1009.0 |
| 20260901062244 | 65 | 230 | 5.2 | 9.6 | 0.00 | 0.05 | 0.05 | 83 | 1008.9 |
| 20260901061444 | 63 | 276 | 2.6 | 7.0 | 0.00 | 0.05 | 0.05 | 97 | 1008.7 |